Simultaneous Nadir Overpasses (SNOs) Predictions

Prediction of SNOs between LANDSAT-8 and NOAA-19 Satellite Orbit:

Table of predicted SNOs for the next 14.0 days since TLE Epoch: 3/15/2019
Index Date (LANDSAT-8) Time (LANDSAT-8) Lat,Lon (LANDSAT-8) SZA (LANDSAT-8 ) Date (NOAA-19) Time (NOAA-19) Lat,Lon (NOAA-19) SZA (NOAA-19 ) Distance(km) Time Diff (sec)
1 03/16/2019 22:40:46 -78.57, 37.91 99.49 03/16/2019 22:40:14 -78.59, 37.81 99.48 3.21 32
2 03/16/2019 23:30:13 78.52,-154.70 80.44 03/16/2019 23:31:12 78.54,-154.64 80.48 3.20 59
3 03/19/2019 04:14:28 78.59, 134.60 79.67 03/19/2019 04:13:41 78.59, 134.52 79.66 1.76 47
4 03/19/2019 05:03:56 -78.56, -57.93 100.39 03/19/2019 05:04:41 -78.55, -57.96 100.39 1.19 45
5 03/21/2019 09:48:12 -78.59,-128.84 101.21 03/21/2019 09:47:09 -78.58,-128.70 101.22 3.38 63
6 03/21/2019 10:37:38 78.58, 38.75 78.77 03/21/2019 10:38:09 78.57, 38.63 78.76 3.00 31
7 03/23/2019 15:21:52 78.65, -31.94 78.01 03/23/2019 15:20:41 78.75, -33.22 78.02 30.25 71
8 03/23/2019 16:11:21 -78.58, 135.32 102.10 03/23/2019 16:11:36 -78.58, 135.26 102.10 1.31 15
9 03/25/2019 21:45:03 78.60,-128.01 77.06 03/25/2019 21:45:05 78.60,-128.17 77.06 3.50 2
10 03/28/2019 03:18:47 -78.60, -31.42 103.80 03/28/2019 03:18:31 -78.59, -31.35 103.82 2.56 16




NCC Satellite Simultaneous Nadir Overpasses (SNOs) Prediction Service
